CAPE
559 491 382 289 180 221 174 217 439 639 645 534 649 1031 725 430 995 1011 372 321 43 165 859 1144 1123 1358 1603 1749 1596 1268 1723 1244 1393
553 557 566 439 233 190 154 210 344 582 767 676 708 771 1037 921 426 1193 1189 256 507 601 420 1041 1277 1404 1394 1780 1669 1362 1086 1855 1792
183 472 692 588 363 226 180 167 267 402 863 918 965 1013 1159 1220 1060 480 1169 1272 343 227 720 978 771 1553 1538 1548 1780 1693 1493 1411 2320
55 209 720 726 515 291 229 164 262 375 540 1101 1306 1421 1160 1524 1794 1456 753 1329 1424 392 188 734 2305 1991 1949 1674 1510 1910 2098 1620 1776
13 87 824 837 731 413 298 227 203 365 589 932 1215 1350 1656 1396 1780 2356 1798 1034 1069 1452 593 312 856 2174 2358 1919 1626 1684 1785 1910 1906
0 51 692 876 900 576 437 308 273 397 446 830 1096 1468 1567 1955 1741 1917 2393 2103 1316 1093 1331 900 638 820 1960 2216 1958 1904 1656 1494 2075
0 0 395 770 990 788 617 462 353 431 435 574 1256 1349 1733 1793 2206 2261 2278 2574 2316 1531 1429 1419 1382 1535 1320 2128 2175 1931 1856 1873 1637
0 0 198 706 870 1035 891 731 491 438 523 560 677 1734 1868 2022 2233 2485 2451 2377 2574 2471 1668 1911 1792 1602 2375 2311 2297 2204 2014 1925 1996
0 90 219 523 657 937 1064 1056 882 692 646 788 957 1013 2024 2255 2592 2617 2570 2601 2585 2769 2681 1992 2089 2512 2058 2392 2605 2579 2211 2191 2205
0 0 0 0 0 114 959 1166 1263 1205 1126 1003 1157 1380 1399 2219 2577 2737 2783 2867 2877 2847 2822 2868 2632 2295 2688 2599 2701 2579 2392 2344 2388
0 0 0 0 0 0 0 1296 1545 1427 1422 1551 1414 1443 1754 1759 2347 2710 2815 2858 2954 2890 2924 2941 2973 2958 2774 2852 2979 2821 2478 2402 2682
154 158 203 191 40 10 0 0 240 2019 1742 1741 1944 1972 1899 2013 2355 2656 2865 2857 2959 3058 3052 3072 3015 3131 3125 3050 3077 2896 2795 2535 2713
178 348 462 594 611 398 20 12 0 756 2239 2153 2032 2037 2398 2543 2491 2664 2763 3007 3057 3264 3251 3191 3249 3186 3273 3247 3132 3192 2879 2766 2953
97 116 368 783 996 1133 1143 437 40 0 584 1990 2377 2363 1878 2172 2626 2794 3044 3064 3249 3316 3484 3538 3448 3434 3393 3406 3532 3500 3100 2838 3127
0 0 49 357 878 1499 1940 1451 603 44 109 421 170 1052 2426 2392 2452 2766 3172 3333 3426 3534 3591 3648 3676 3606 3580 3679 3736 3569 3382 2927 2908
0 0 0 10 615 1593 2054 2236 1779 970 407 500 531 815 1924 2536 2533 2672 2645 3220 3529 3635 3722 3731 3734 3712 3716 3692 3651 3747 3567 3176 3016
0 0 0 0 0 290 1357 1799 2319 2473 1374 1108 1607 1247 2124 3144 2956 2908 2733 2979 3342 3660 3799 3882 3856 3858 3802 3673 3757 3776 3571 3188 2595
0 0 0 0 0 0 584 1294 2618 3517 2966 1932 1200 1237 2046 2489 3284 3039 3181 2195 2300 3513 3349 3359 3890 3856 3724 3715 3478 3374 3411 3431 2752
0 0 0 0 0 0 191 1107 2082 2599 3348 3563 3564 2809 1989 3850 3734 3522 3077 2179 1338 138 772 1019 1967 3189 3649 2253 2315 1994 2188 2540 2582
0 0 0 0 0 0 334 1211 1586 2399 2351 2628 2948 3607 3318 2728 3819 3793 3147 2475 2248 1975 337 37 650 1080 1542 2244 1391 1055 1063 1066 940
CIN
-82 -112 -164 -198 -219 -242 -284 -299 -292 -264 -266 -263 -235 -161 -229 -304 -172 -162 -256 -236 -330 -253 -103 -60 -51 -38 -36 -37 -46 -33 -17 -26 -23
-68 -98 -124 -180 -232 -256 -284 -310 -323 -318 -297 -304 -294 -284 -237 -246 -336 -184 -173 -311 -215 -165 -180 -69 -52 -49 -54 -39 -42 -44 -55 -16 -25
-42 -62 -119 -135 -225 -265 -305 -329 -338 -365 -319 -314 -307 -295 -259 -244 -263 -352 -214 -165 -272 -268 -150 -89 -95 -39 -61 -58 -47 -54 -52 -55 -10
-38 -47 -95 -132 -213 -234 -266 -311 -327 -358 -365 -301 -275 -246 -293 -226 -190 -229 -299 -185 -162 -251 -253 -126 -30 -35 -55 -67 -78 -49 -34 -44 -35
-21 -38 -69 -111 -156 -216 -247 -316 -340 -363 -351 -346 -336 -309 -244 -267 -189 -117 -170 -262 -233 -170 -223 -233 -126 -36 -32 -67 -82 -61 -50 -43 -52
-0 -40 -69 -100 -138 -183 -234 -273 -320 -331 -363 -362 -349 -300 -265 -195 -216 -197 -131 -162 -234 -240 -191 -189 -190 -152 -59 -40 -65 -64 -72 -83 -53
-0 -0 -47 -77 -112 -145 -180 -233 -257 -305 -323 -355 -323 -326 -282 -271 -229 -210 -175 -141 -185 -235 -229 -187 -154 -121 -116 -61 -54 -88 -83 -80 -109
-0 -0 -39 -64 -72 -114 -139 -162 -210 -279 -280 -311 -330 -314 -305 -304 -274 -229 -209 -199 -168 -178 -225 -181 -171 -163 -88 -80 -69 -83 -105 -119 -119
-0 -58 -59 -51 -83 -95 -121 -126 -178 -252 -270 -292 -314 -319 -320 -302 -274 -257 -255 -227 -207 -169 -177 -227 -188 -145 -169 -106 -86 -91 -144 -144 -136
-0 -0 -0 -0 -0 -73 -87 -102 -145 -207 -237 -242 -271 -301 -340 -314 -304 -286 -269 -244 -208 -199 -199 -186 -211 -224 -158 -181 -175 -170 -188 -192 -161
-0 -0 -0 -0 -0 -0 -0 -82 -91 -128 -156 -195 -229 -280 -324 -350 -335 -308 -288 -261 -250 -246 -236 -225 -205 -211 -232 -223 -226 -232 -237 -223 -167
-319 -356 -324 -340 -348 -368 -0 -0 -197 -78 -108 -151 -165 -192 -247 -294 -325 -304 -301 -304 -281 -271 -250 -240 -252 -231 -227 -249 -264 -258 -235 -222 -182
-492 -426 -380 -326 -309 -297 -289 -168 -0 -135 -68 -88 -104 -157 -180 -206 -255 -272 -302 -304 -294 -259 -261 -255 -228 -240 -239 -249 -271 -240 -257 -224 -152
-655 -674 -502 -377 -301 -291 -261 -278 -170 -0 -200 -111 -128 -153 -151 -170 -217 -251 -275 -288 -290 -269 -237 -219 -221 -212 -212 -226 -225 -221 -262 -264 -183
-0 -0 -816 -601 -383 -303 -254 -231 -270 -338 -303 -269 -325 -225 -151 -182 -199 -230 -248 -256 -261 -238 -209 -193 -181 -185 -195 -207 -206 -232 -252 -294 -265
-0 -0 -0 -456 -501 -289 -251 -213 -187 -199 -245 -279 -254 -223 -191 -189 -219 -222 -240 -235 -225 -204 -189 -184 -178 -169 -189 -210 -201 -204 -227 -271 -254
-0 -0 -0 -0 -0 -495 -300 -251 -193 -193 -223 -218 -156 -173 -132 -188 -201 -219 -234 -223 -201 -179 -181 -167 -156 -156 -174 -173 -166 -196 -216 -259 -339
-0 -0 -0 -0 -0 -0 -455 -252 -89 -37 -105 -212 -237 -245 -197 -178 -179 -204 -204 -327 -367 -192 -223 -235 -141 -132 -140 -141 -185 -234 -223 -196 -295
-0 -0 -0 -0 -0 -0 -611 -252 -86 -55 -35 -46 -75 -139 -215 -115 -128 -160 -218 -350 -536 -1254 -823 -686 -421 -171 -111 -338 -337 -423 -345 -261 -295
-0 -0 -0 -0 -0 -0 -438 -167 -118 -52 -95 -67 -75 -64 -101 -153 -70 -84 -180 -317 -343 -335 -1005 -1367 -758 -537 -411 -287 -458 -550 -532 -509 -558
Wind_Speed
35 36 36 31 32 28 27 25 26 26 28 29 28 27 32 34 30 27 28 26 27 24 18 15 18 17 15 15 15 15 13 13 14
33 34 35 32 33 29 26 25 27 28 27 30 31 34 32 33 35 33 29 28 25 21 21 13 14 16 15 13 14 15 15 13 15
28 33 33 32 32 30 26 25 26 28 28 30 30 32 32 34 36 35 30 22 24 23 23 21 8 9 13 14 13 15 15 13 11
24 22 33 33 30 27 26 24 22 26 26 28 29 31 35 36 34 33 28 22 20 21 18 21 11 3 8 14 15 12 12 11 11
14 22 30 32 29 27 24 22 23 23 23 27 31 33 34 35 31 26 24 26 24 23 24 24 24 7 10 13 15 12 9 9 13
25 16 24 30 29 29 26 22 24 23 24 25 28 29 30 27 28 27 25 24 26 26 25 26 28 25 16 17 15 13 13 11 14
14 19 21 26 28 32 27 23 25 23 23 23 23 26 25 27 25 25 24 23 22 22 20 22 23 25 24 18 19 18 17 16 17
10 17 16 21 25 23 25 19 22 24 23 24 24 23 24 24 23 20 19 22 20 18 21 21 22 23 22 21 19 20 21 21 20
10 9 11 17 19 20 24 22 20 25 23 23 21 24 22 22 19 18 20 20 22 21 22 25 23 21 23 22 22 24 25 23 21
6 6 7 5 8 10 22 31 18 17 17 17 21 24 25 20 18 19 21 21 21 24 22 22 23 24 21 22 24 26 26 25 21
7 7 8 8 6 8 14 12 27 21 19 17 18 18 21 25 18 20 21 22 24 25 24 24 23 24 24 23 25 24 24 24 23
8 8 9 9 10 10 10 12 19 26 24 23 25 16 24 19 21 19 20 23 23 22 21 21 22 20 22 25 27 24 23 22 20
9 10 12 16 16 15 15 16 17 21 19 17 20 21 16 20 14 18 21 22 20 18 19 19 15 19 21 23 27 23 21 21 18
11 13 16 19 20 20 21 21 21 20 23 29 32 21 13 15 16 13 14 14 16 16 16 15 16 16 19 23 22 20 19 19 19
13 14 17 19 23 26 28 27 26 28 27 26 28 30 26 15 14 15 17 14 14 15 15 16 16 16 18 17 19 22 17 18 21
17 17 18 19 22 26 28 28 28 32 33 32 32 35 35 28 24 24 22 20 20 19 18 17 18 17 17 17 17 18 16 17 17
22 22 22 23 24 27 30 32 34 37 39 35 34 34 36 33 27 25 23 23 22 20 20 18 17 17 17 17 18 16 17 16 14
27 27 26 26 27 29 32 33 33 33 33 36 38 38 39 36 26 20 20 20 22 18 20 18 18 17 19 17 16 16 16 15 14
29 31 31 31 31 32 34 34 34 34 32 32 34 38 36 34 26 22 20 17 19 22 22 23 23 20 17 19 19 18 17 16 14
34 35 36 35 35 37 37 36 35 34 33 35 36 36 34 32 26 22 19 18 16 17 21 19 20 20 18 17 15 15 16 13 12
Wind_Direction
178 178 176 173 172 170 170 170 173 175 177 179 180 180 184 187 183 181 183 181 186 182 167 158 168 168 158 156 152 151 142 144 137
179 179 176 174 173 171 171 171 173 175 177 179 180 182 183 185 188 188 186 187 184 178 181 165 172 174 170 161 158 161 161 151 154
184 180 176 174 173 171 173 173 173 174 176 178 179 181 182 185 190 192 189 183 187 187 187 186 185 167 173 170 165 167 166 162 155
181 183 176 173 172 172 173 174 176 176 176 178 179 181 185 188 188 190 189 187 187 190 189 189 292 199 167 171 173 165 161 167 170
192 182 176 173 172 171 172 174 175 179 179 178 181 183 185 189 188 186 188 191 191 190 193 194 192 183 178 176 178 174 170 171 179
232 196 178 173 172 170 169 171 174 175 177 179 178 180 183 184 188 189 189 190 193 195 195 197 199 196 189 187 186 185 184 183 183
221 209 180 178 174 172 171 171 175 177 179 178 176 178 180 185 187 189 190 191 193 195 196 197 197 198 198 193 193 194 193 192 193
197 219 205 183 182 185 178 178 175 176 178 177 178 180 182 186 187 188 191 193 194 197 196 196 198 199 199 197 197 197 197 198 200
230 218 217 220 224 199 186 181 177 176 177 178 180 181 184 185 187 193 192 191 191 191 192 196 195 196 199 200 200 199 200 200 201
226 216 215 215 236 253 200 184 214 217 196 188 183 184 186 185 188 189 188 190 191 193 194 194 196 198 197 200 202 202 202 203 203
228 237 243 250 278 284 261 228 186 194 227 226 195 193 189 188 191 191 191 191 193 195 196 197 198 201 202 204 206 205 206 208 211
229 240 257 263 272 282 302 281 256 239 235 238 245 234 195 197 194 196 195 197 197 197 199 201 204 206 207 210 212 212 212 214 220
256 263 265 258 268 276 285 292 287 259 240 223 206 206 234 255 212 202 200 200 202 205 206 210 222 214 215 215 217 216 220 222 235
270 273 272 274 273 274 276 278 278 276 261 251 251 259 243 250 254 239 226 222 218 218 223 233 232 229 220 219 220 225 230 232 239
277 276 280 281 271 270 272 277 274 271 269 268 266 263 267 259 254 262 263 247 246 244 244 243 246 243 230 233 225 223 241 243 238
278 286 286 288 282 276 276 278 276 265 260 262 263 261 263 268 266 266 266 265 264 262 260 255 256 252 241 239 268 275 254 253 251
278 283 284 291 291 282 277 280 277 271 259 263 262 266 264 266 268 267 267 269 267 264 263 255 251 254 249 269 278 274 280 281 268
279 276 284 290 287 285 282 281 281 285 272 269 267 266 265 266 269 265 268 270 274 264 270 263 262 262 272 272 272 276 283 284 290
275 276 280 284 287 284 282 283 281 281 283 279 275 268 269 269 267 265 264 263 274 282 279 280 279 275 269 282 289 292 294 293 285
278 278 279 278 282 281 278 281 284 285 285 280 276 274 272 272 268 263 260 261 265 270 283 287 286 286 282 278 285 298 306 309 313